Location: Wanzleben
(52.0609°N, 11.4408°E)
Time: 11:33:16
(UTC+00:00)

Cosmos 1833 Rocket - Pass Details

Date: 18 September 2020
Orbit: 831 x 841 km, 71.0° (Epoch: 30 October)

Event Time Altitude Azimuth Distance (km) Brightness Sun altitude
Rises 21:43:04 0° 323° (NW) 3,408 6.9 -33.6°
Reaches altitude 10° 21:45:48 10° 313° (NW) 2,469 5.8 -33.8°
Enters shadow 21:49:22 26° 277° (W) 1,588 4.3 -34.0°
